Location: Etzleinsberg
(48.4833°N, 14.0333°E)
Time: 01:20:26
(UTC+00:00)

Daily predictions for brighter satellites

Satellite Brightness Start Highest point End
(mag) Time Altitude Azimuth Time Altitude Azimuth Time Altitude Azimuth
STARLINK-1268 2.9 00:04:28 56° SSE 00:04:28 56° SSE 00:07:30 10° ENE
STARLINK-1301 3.5 00:03:56 44° SSW 00:04:50 57° SSE 00:08:38 10° ENE
DELTA 2 DEB (DPAF) 4.5 00:02:34 22° SSE 00:05:20 64° ENE 00:09:47 10° N
STARLINK-1303 3.4 00:05:53 45° SSW 00:06:42 56° SSE 00:10:23 10° ENE
Cosmos 1400 Rocket 3.1 00:02:52 10° N 00:07:01 65° ENE 00:09:10 27° SSE
Cosmos 1570 Rocket 4.0 00:04:53 29° SSW 00:07:37 79° WNW 00:12:56 10° NNE
STARLINK-66 2.8 00:07:08 50° WSW 00:07:51 86° SSE 00:11:05 10° ENE
Cosmos 1709 Rocket 4.0 00:05:05 28° SSW 00:08:32 74° W 00:14:45 10° N
Cosmos 2227 Rocket 3.5 00:04:09 10° NW 00:08:33 23° WSW 00:10:10 21° SW
Cosmos 1763 Rocket 4.0 00:05:57 23° SW 00:08:50 49° WNW 00:13:47 10° NNE
STARLINK-1316 2.8 00:09:23 59° S 00:09:36 62° SSE 00:12:42 10° ENE
STARLINK-1312 3.4 00:09:13 43° SSW 00:10:09 60° SSE 00:13:54 10° ENE
STARLINK-1257 2.8 00:10:14 59° S 00:10:30 63° SSE 00:13:37 10° ENE
STARLINK-1256 2.8 00:11:11 60° S 00:11:28 64° SSE 00:14:34 10° ENE
STARLINK-58 3.2 00:11:42 47° SSE 00:11:46 47° SE 00:14:51 10° ENE
STARLINK-1213 2.8 00:12:02 59° S 00:12:21 65° SSE 00:15:27 10° ENE
STARLINK-52 3.9 00:10:01 10° WNW 00:13:09 48° NNE 00:16:18 10° E
STARLINK-1263 2.8 00:12:53 59° SSW 00:13:14 66° SSE 00:16:20 10° ENE
Cosmos 2084 Rocket 3.8 00:09:06 10° NW 00:13:24 47° SW 00:14:58 33° S
STARLINK-1259 2.8 00:13:47 59° SSW 00:14:10 67° SSE 00:17:17 10° ENE
STARLINK-1265 2.8 00:14:09 57° SSW 00:14:35 68° SSE 00:17:43 10° ENE
STARLINK-1285 2.8 00:14:38 58° SSW 00:15:03 68° SSE 00:18:10 10° ENE
Cosmos 2227 4.4 00:09:20 10° NNW 00:15:07 77° ENE 00:20:47 11° SSE
Cosmos 2298 Rocket 4.0 00:10:44 10° NNW 00:16:05 88° WSW 00:19:50 20° SSE
SL-16 R/B 2.9 00:10:23 11° SSE 00:16:09 64° ENE 00:22:17 10° N
STARLINK-1296 2.7 00:16:22 56° SSW 00:16:51 70° SSE 00:19:58 10° ENE
Cosmos 1758 Rocket 3.8 00:15:28 31° SW 00:17:20 57° WNW 00:21:44 10° N
STARLINK-1260 2.7 00:17:14 55° SSW 00:17:45 72° SSE 00:20:52 10° ENE
STARLINK-1318 2.7 00:18:06 54° SW 00:18:39 73° SSE 00:21:47 10° ENE
STARLINK-75 2.9 00:18:02 40° WSW 00:19:06 88° NNW 00:22:20 10° ENE
STARLINK-1275 2.7 00:18:59 54° SW 00:19:34 74° SSE 00:22:41 10° ENE
STARLINK-48 4.0 00:19:05 35° S 00:19:53 40° SE 00:23:33 10° ENE
STARLINK-1309 2.7 00:19:50 52° SW 00:20:27 75° SSE 00:23:34 10° ENE
STARLINK-1282 2.7 00:20:42 51° SW 00:21:21 76° SSE 00:24:28 10° ENE
IRAS Rocket 4.2 00:18:06 25° S 00:21:25 69° WSW 00:26:57 10° NNW
STARLINK-1283 3.5 00:20:03 30° SW 00:21:59 76° SSE 00:26:06 10° ENE
STARLINK-1313 2.7 00:21:39 46° WSW 00:22:27 85° SSE 00:25:35 10° ENE
STARLINK-80 3.3 00:21:06 34° SW 00:22:37 75° SSE 00:26:26 10° ENE
STARLINK-1279 2.7 00:22:33 45° WSW 00:23:23 86° SE 00:26:31 10° ENE
STARLINK-1298 2.7 00:23:16 48° SW 00:24:00 79° SSE 00:27:08 10° ENE
STARLINK-1293 2.7 00:24:09 47° SW 00:24:56 80° SSE 00:28:04 10° ENE
SL-16 R/B 3.3 00:22:44 18° SSE 00:26:13 35° ESE 00:31:17 10° NE
Cosmos 2208 Rocket 4.2 00:23:37 26° SW 00:26:39 67° WNW 00:32:01 10° NNE
STARLINK-1255 2.7 00:25:54 45° SW 00:26:44 83° SSE 00:29:53 10° ENE
STARLINK-22 2.8 00:26:15 39° WSW 00:27:21 88° SE 00:30:34 10° ENE
STARLINK-1297 3.1 00:26:32 35° SW 00:27:55 75° SSE 00:31:32 10° ENE
STARLINK 1040 4.0 00:26:21 16° WNW 00:28:02 34° NNW 00:30:25 10° ENE
STARLINK-1311 2.7 00:28:27 42° WSW 00:29:19 83° NNW 00:32:17 10° ENE
CZ-2D R/B 2.6 00:26:27 10° NNE 00:31:33 52° E 00:35:02 20° S
MOZ.5/SAFIR/RUBIN 5/SL-8 3.7 00:29:15 22° SSE 00:32:13 87° WSW 00:36:54 10° NNW
Cosmos-2242 3.7 00:28:50 10° NNW 00:32:48 39° W 00:34:23 28° SW
USA 215 3.6 00:28:06 14° SSE 00:33:23 41° SW 00:39:32 10° WNW
Cosmos 1953 Rocket 3.7 00:33:32 29° SSW 00:35:42 65° WNW 00:40:04 10° N
Cosmos 2221 3.2 00:31:26 10° N 00:35:43 51° ENE 00:39:27 13° SSE
STARLINK-42 3.2 00:36:26 24° W 00:38:07 65° NNW 00:41:13 10° ENE
BREEZE-M R/B 3.0 00:32:44 10° W 00:38:11 73° N 00:41:11 10° E
STARLINK-1029 2.9 00:39:04 41° SSW 00:39:55 62° SSE 00:43:03 10° ENE
GP-B 3.1 00:36:00 10° N 00:40:27 80° W 00:42:59 26° S
STARLINK-34 2.7 00:40:02 39° SW 00:41:02 80° SSE 00:44:07 10° ENE
STARLINK-60 2.8 00:38:03 10° WNW 00:41:13 65° SSW 00:44:22 10° SE
CZ-4C R/B 3.5 00:38:35 22° S 00:41:24 82° WSW 00:45:52 10° NNW
FALCON 9 DEB 3.9 00:38:11 10° WNW 00:41:35 53° NNE 00:44:59 10° E
STARLINK-41 3.1 00:40:11 24° W 00:41:50 63° NNW 00:44:53 10° ENE
Cosmos 1315 Rocket 3.3 00:38:41 10° N 00:42:35 58° ENE 00:45:44 15° SSE
Cosmos 1842 Rocket 3.7 00:38:13 10° N 00:42:43 73° E 00:46:04 17° SSE
STARLINK-1272 3.2 00:42:02 25° WSW 00:43:59 85° NNW 00:47:33 10° ENE
Cosmos 540 Rocket 4.0 00:41:07 21° SW 00:44:21 48° WNW 00:49:20 10° NNE
STARLINK-62 2.7 00:43:45 35° WSW 00:44:53 85° SSE 00:47:57 10° ENE
Helios 1B rocket 4.2 00:44:48 10° NNW 00:47:59 22° WNW 00:50:24 14° WSW
Cosmos 2360 Rocket 3.9 00:44:15 10° SSE 00:48:36 24° ESE 00:52:59 10° NE
STARLINK-1277 4.4 00:47:30 26° S 00:49:06 36° SE 00:52:55 10° ENE
STARLINK-1307 3.3 00:46:48 21° WSW 00:49:09 82° NNW 00:52:53 10° ENE
STARLINK-1290 3.4 00:50:11 20° WSW 00:52:40 79° NNW 00:56:24 10° ENE
Cosmos 2058 4.0 00:50:48 14° SSE 00:54:04 40° E 00:58:02 10° NNE
STARLINK-1276 4.3 00:52:19 25° SSW 00:54:05 39° SE 00:57:57 10° ENE
IKONOS-2 4.5 00:51:36 20° S 00:54:34 77° WSW 00:58:53 10° NNW
Shenzhou-11 Module 3.9 00:56:40 13° SE 00:56:40 13° SE 00:57:11 10° ESE
Cosmos 1980 Rocket 2.7 00:51:50 18° SW 00:55:52 51° NW 01:01:25 10° NNE
Cosmos 2074 Rocket 4.0 00:51:22 20° SSW 00:55:53 80° W 01:02:12 10° N
STARLINK-1305 4.2 00:57:05 25° SSW 00:59:00 42° SE 01:02:55 10° ENE
Cosmos 1455 4.3 00:57:32 10° WNW 00:59:10 13° W 01:00:05 12° W
STARLINK-1306 4.1 00:57:24 25° SSW 00:59:27 45° SE 01:03:28 10° ENE
STARLINK-1317 3.6 00:56:33 15° WSW 00:59:40 72° NNW 01:03:35 10° ENE
CZ-4B R/B 3.8 00:55:12 10° NNE 01:00:27 67° ESE 01:04:34 17° S
STARLINK-55 3.9 01:00:33 10° W 01:03:35 46° NNW 01:06:42 10° ENE
STARLINK-1274 3.5 01:00:55 16° WSW 01:03:41 67° NNW 01:07:13 10° ENE
STARLINK-1262 4.1 01:01:53 24° SSW 01:04:00 45° SE 01:07:58 10° ENE
STARLINK-1372 4.5 01:02:26 10° WNW 01:06:22 50° NNE 01:10:17 10° E
STARLINK-1291 3.6 01:04:15 14° WSW 01:07:23 66° NNW 01:11:07 10° ENE
STARLINK-1300 4.0 01:06:40 23° SSW 01:08:56 49° SE 01:12:57 10° ENE
ADEOS II 2.9 01:04:33 10° NNE 01:09:38 45° E 01:14:39 10° S
STARLINK-1264 3.7 01:07:26 13° WSW 01:10:43 64° NNW 01:14:26 10° ENE
STARLINK-1378 4.4 01:07:05 10° WNW 01:11:01 52° NNE 01:14:57 10° E
Cosmos 2263 Rocket 2.4 01:05:42 10° NW 01:11:04 49° WSW 01:15:58 12° S
IRS-1D 3.9 01:07:42 10° NNE 01:12:57 61° ESE 01:17:31 13° S
STARLINK-1295 3.9 01:11:26 22° SW 01:13:54 52° SE 01:17:57 10° ENE
STARLINK-29 2.8 01:10:49 10° WNW 01:14:00 68° SSW 01:17:10 10° SE
NOSS 2-1 (C) 2.9 01:12:05 24° SSW 01:14:01 79° SE 01:17:41 10° NE
STARLINK-1267 3.7 01:10:39 12° W 01:14:05 62° NNW 01:17:48 10° ENE
AQUA 3.8 01:09:52 10° NNE 01:14:41 86° ESE 01:18:24 17° SSW
UNK 4.1 01:11:41 19° SSW 01:14:43 46° W 01:19:09 10° NNW
STARLINK-28 4.1 01:12:07 10° W 01:15:10 41° NNW 01:18:15 10° ENE
STARLINK-1379 4.4 01:11:35 10° WNW 01:15:32 53° NNE 01:19:30 10° E
SL-4 R/B 2.6 01:10:57 10° WNW 01:15:35 47° SW 01:20:03 10° SE
STARLINK-64 3.2 01:14:12 20° WSW 01:16:34 80° SSE 01:20:10 10° ENE
USA 229 DEB 4.0 01:09:58 10° NW 01:17:04 57° WSW 01:24:29 10° SSE
USA 229 4.0 01:10:05 10° NW 01:17:11 58° WSW 01:24:35 10° SSE
NOSS 3-1 (C) 4.2 01:10:38 10° NW 01:17:57 54° WSW 01:26:18 10° SSE
NPP 3.7 01:13:10 10° NNE 01:18:36 76° WNW 01:22:54 16° SSW
STARLINK-1287 3.8 01:16:13 20° SW 01:18:52 56° SSE 01:22:56 10° ENE
NOSS 2-1 (D) 2.9 01:16:50 22° SW 01:18:55 88° ESE 01:22:36 10° NE
ARIANE 5 R/B 3.9 01:14:47 10° NNE 01:19:19 33° E 01:23:48 10° SSE
STARLINK-1329 4.3 01:15:22 10° WNW 01:19:21 55° NNE 01:23:19 10° E
STARLINK-1207 3.9 01:17:10 10° W 01:20:52 58° NNW 01:24:35 10° ENE
Cosmos 2184 Rocket 4.3 01:16:26 17° SSW 01:21:07 55° WNW 01:27:11 10° N
ERS-2 4.2 01:19:15 10° SE 01:22:27 29° ENE 01:25:40 10° N
CZ-4C R/B 4.0 01:18:57 10° W 01:23:45 29° NNW 01:29:23 10° NE
STARLINK-1362 4.3 01:19:54 10° WNW 01:23:53 57° NNE 01:27:54 10° E
STARLINK-1266 3.9 01:20:35 10° W 01:24:17 56° NNW 01:27:59 10° ENE
BREEZE-M DEB (TANK) 1.6 01:23:14 21° WSW 01:24:25 82° SSE 01:27:42 10° E
Cosmos 1892 2.7 01:21:53 16° S 01:24:51 80° E 01:28:39 10° NNE
STARLINK-33 4.2 01:22:25 10° W 01:25:23 39° NNW 01:28:21 10° ENE
NOSS 3-1 (A) 4.1 01:18:44 10° NW 01:26:12 68° SW 01:34:45 10° SSE
STARLINK-1299 3.7 01:24:05 17° SW 01:27:19 72° SSE 01:31:35 10° ENE
STARLINK-1284 4.0 01:24:00 10° W 01:27:41 55° NNW 01:31:24 10° ENE
STARLINK-1373 4.2 01:24:26 10° WNW 01:28:26 58° NNE 01:32:25 10° E
STARLINK-1320 3.4 01:25:32 10° WNW 01:28:39 63° NNE 01:31:44 10° ESE
STARLINK-1302 3.7 01:25:46 17° SW 01:28:47 65° SSE 01:32:54 10° ENE
STARLINK-26 4.3 01:25:34 10° W 01:28:52 42° N 01:32:11 10° ENE
BREEZE-M DEB (TANK) 1.1 01:26:39 10° WNW 01:28:59 81° N 01:31:48 10° E
STARLINK-1322 3.4 01:25:53 10° WNW 01:29:00 63° NNE 01:32:06 10° ESE
STARLINK-1324 3.3 01:26:12 10° WNW 01:29:19 63° NNE 01:32:24 10° ESE
STARLINK-1294 3.4 01:26:30 10° WNW 01:29:37 64° NNE 01:32:45 10° ESE
STARLINK-1261 3.3 01:26:54 10° WNW 01:30:00 64° NNE 01:33:06 10° ESE
Cosmos 1869 3.6 01:26:28 10° NNW 01:30:11 44° W 01:33:00 16° SSW
STARLINK-1325 3.3 01:27:14 10° WNW 01:30:21 64° NNE 01:33:28 10° ESE
STARLINK-1333 3.3 01:27:37 10° WNW 01:30:43 64° NNE 01:33:50 10° ESE
STARLINK-1334 3.3 01:27:54 10° WNW 01:31:00 65° NNE 01:34:06 10° ESE
STARLINK-1258 4.0 01:27:27 10° W 01:31:08 53° NNW 01:34:50 10° ENE
STARLINK-1326 3.3 01:28:12 10° WNW 01:31:19 65° NNE 01:34:26 10° ESE
STARLINK-1323 3.3 01:28:36 10° WNW 01:31:43 65° NNE 01:34:49 10° ESE
STARLINK-1349 3.3 01:28:54 10° WNW 01:32:01 65° NNE 01:35:07 10° ESE
STARLINK-1336 3.3 01:29:13 10° WNW 01:32:20 66° NNE 01:35:26 10° ESE
STARLINK-1331 3.3 01:29:36 10° WNW 01:32:43 66° NNE 01:35:49 10° ESE
STARLINK-1344 3.3 01:29:54 10° WNW 01:33:01 66° NNE 01:36:07 10° ESE
STARLINK-1390 4.1 01:29:01 10° WNW 01:33:03 61° NNE 01:37:04 10° E
STARLINK-1343 3.3 01:30:17 10° WNW 01:33:24 67° NNE 01:36:31 10° ESE
STARLINK-1346 3.3 01:30:33 10° WNW 01:33:42 67° NNE 01:36:51 10° ESE
STARLINK-1273 3.6 01:30:32 16° SW 01:33:45 69° SSE 01:37:53 10° ENE
STARLINK-1328 3.2 01:31:00 10° WNW 01:34:07 67° NNE 01:37:14 10° ESE
STARLINK-1354 3.2 01:31:17 10° WNW 01:34:24 68° NNE 01:37:31 10° ESE
Cosmos 2322 Rocket 2.2 01:29:42 15° SSW 01:34:25 90° NNW 01:40:04 10° NNE
STARLINK-1292 4.1 01:30:55 10° W 01:34:35 52° NNW 01:38:16 10° ENE
STARLINK-1347 3.2 01:31:34 10° WNW 01:34:41 68° NNE 01:37:48 10° ESE
STARLINK-1357 3.2 01:32:00 10° WNW 01:35:08 68° NNE 01:38:15 10° ESE
STARLINK-1335 3.2 01:32:17 10° WNW 01:35:25 68° NNE 01:38:32 10° ESE
STARLINK-1327 3.2 01:32:39 10° WNW 01:35:46 69° NNE 01:38:53 10° ESE
In-Cosmos 22 Rocket 4.2 01:31:02 13° SSW 01:36:03 81° WNW 01:41:33 10° N
STARLINK-1340 3.2 01:32:57 10° WNW 01:36:03 69° NNE 01:39:10 10° ESE
STARLINK-1356 3.2 01:33:19 10° WNW 01:36:27 69° NNE 01:39:33 10° ESE
STARLINK-1345 3.2 01:33:38 10° WNW 01:36:45 70° NNE 01:39:52 10° ESE
STARLINK-1355 3.2 01:33:59 10° WNW 01:37:07 70° NNE 01:40:13 10° ESE
STARLINK-1321 3.2 01:34:20 10° WNW 01:37:28 70° NNE 01:40:35 10° ESE
STARLINK-1358 3.1 01:34:43 10° WNW 01:37:50 71° NNE 01:40:57 10° ESE
STARLINK-1332 3.1 01:35:01 10° WNW 01:38:08 71° NNE 01:41:14 10° ESE
STARLINK-1348 3.1 01:35:21 10° WNW 01:38:28 71° NNE 01:41:35 10° ESE
STARLINK-1288 3.6 01:35:19 15° SW 01:38:42 74° SSE 01:42:52 10° ENE
STARLINK-1330 3.1 01:35:40 10° WNW 01:38:48 72° NNE 01:41:55 10° ESE
STARLINK-61 3.7 01:35:51 16° SW 01:38:49 59° SSE 01:42:41 10° ENE
STARLINK-1365 4.1 01:34:59 10° WNW 01:39:04 65° NNE 01:43:07 10° ESE
STARLINK-1363 3.1 01:36:00 10° WNW 01:39:08 72° NNE 01:42:15 10° ESE
STARLINK-1337 3.1 01:36:23 10° WNW 01:39:30 72° NNE 01:42:37 10° ESE
STARLINK-1342 3.1 01:36:42 10° WNW 01:39:50 73° NNE 01:42:57 10° ESE
STARLINK-1364 3.1 01:37:02 10° WNW 01:40:10 73° NNE 01:43:17 10° ESE
STARLINK-1268 4.1 01:37:19 10° W 01:40:16 40° NNW 01:43:13 10° ENE
Resurs 1-4 Rocket 2.7 01:35:24 10° N 01:40:25 44° WNW 01:44:54 13° SW
STARLINK-1376 3.1 01:37:22 10° WNW 01:40:30 73° NNE 01:43:37 10° ESE
STARLINK-1360 3.1 01:37:43 10° WNW 01:40:51 74° NNE 01:43:58 10° ESE
STARLINK-1361 3.1 01:38:04 10° WNW 01:41:11 74° NNE 01:44:18 10° ESE
STARLINK-1289 4.2 01:37:48 10° W 01:41:28 49° NNW 01:45:09 10° ENE
STARLINK-1367 3.1 01:38:19 10° WNW 01:41:29 75° NNE 01:44:38 10° ESE
STARLINK-1366 3.1 01:38:42 10° WNW 01:41:50 75° NNE 01:44:57 10° ESE
STARLINK-54 4.5 01:40:39 14° SSW 01:43:08 30° SE 01:46:20 10° ENE
STARLINK-1301 4.3 01:39:42 10° W 01:43:28 49° NNW 01:47:13 10° ENE
Cosmos 1076 Rocket 3.6 01:39:51 13° SSW 01:43:38 67° W 01:48:01 10° N
STARLINK-1308 3.6 01:40:08 13° WSW 01:43:44 80° SSE 01:47:54 10° ENE
STARLINK-66 4.4 01:41:11 10° WNW 01:44:13 37° N 01:47:15 10° ENE
Cosmos 1125 Rocket 4.5 01:40:24 10° NW 01:44:49 28° W 01:48:53 11° SSW
STARLINK-1303 4.2 01:41:19 10° W 01:44:58 48° NNW 01:48:38 10° ENE
Cosmos 2151 3.6 01:41:12 10° S 01:45:24 56° E 01:49:38 10° NNE
STARLINK-1316 4.2 01:42:35 10° W 01:45:33 39° N 01:48:32 10° ENE
COBE Rocket 4.2 01:40:50 10° SSE 01:45:55 78° ENE 01:51:07 10° N
STARLINK-1257 4.2 01:43:28 10° W 01:46:27 39° N 01:49:26 10° ENE
H-2A R/B 3.2 01:42:56 10° SE 01:47:13 49° ENE 01:51:36 10° N
STARLINK-1256 4.2 01:44:27 10° W 01:47:25 39° N 01:50:23 10° ENE
STARLINK-58 3.9 01:44:44 10° W 01:47:49 45° NNW 01:50:54 10° ENE
STARLINK-1213 4.2 01:45:20 10° W 01:48:18 39° N 01:51:17 10° ENE
STARLINK-1312 4.3 01:44:48 10° W 01:48:28 47° NNW 01:52:08 10° ENE
STARLINK-1338 3.8 01:45:13 10° WNW 01:49:12 70° NNE 01:53:11 10° ESE
STARLINK-1263 4.2 01:46:14 10° W 01:49:12 38° N 01:52:10 10° ENE
STARLINK-52 3.3 01:46:13 10° WNW 01:49:16 40° SW 01:52:18 10° SE
STARLINK-79 4.5 01:46:45 13° SSW 01:49:28 31° SE 01:52:42 10° ENE
STARLINK-1259 4.2 01:47:11 10° W 01:50:08 38° N 01:53:06 10° ENE
Okean 3 Rocket 4.4 01:46:00 10° S 01:50:24 52° E 01:54:50 10° NNE
STARLINK-1265 4.2 01:47:34 10° W 01:50:32 39° N 01:53:32 10° ENE
STARLINK-1285 4.2 01:48:03 10° W 01:51:01 38° N 01:53:59 10° ENE
STARLINK-78 4.4 01:48:20 13° SSW 01:51:05 32° SE 01:54:22 10° ENE
STARLINK-57 4.3 01:49:58 13° SSW 01:52:47 34° SE 01:56:05 10° ENE
STARLINK-1296 4.2 01:49:53 10° W 01:52:51 38° N 01:55:48 10° ENE
Cosmos 1408 2.6 01:49:31 11° SSW 01:53:04 79° W 01:56:46 10° N
STARLINK-1304 3.6 01:49:41 11° WSW 01:53:40 88° SSE 01:57:50 10° ENE
STARLINK-1260 4.3 01:50:47 10° W 01:53:45 38° N 01:56:42 10° ENE
STARLINK-49 4.3 01:51:26 13° SSW 01:54:18 33° SE 01:57:35 10° ENE
STARLINK-1318 4.3 01:51:42 10° W 01:54:39 37° N 01:57:37 10° ENE
STARLINK-75 4.5 01:52:25 10° WNW 01:55:29 36° N 01:58:30 10° ENE
Cosmos 2154 Rocket 4.5 01:49:51 12° SSW 01:55:30 48° WNW 02:01:31 10° N
STARLINK-1275 4.3 01:52:36 10° W 01:55:34 37° N 01:58:31 10° ENE
STARLINK-27 4.3 01:53:02 12° SSW 01:55:57 34° SE 01:59:17 10° ENE
STARLINK-1309 4.3 01:53:30 10° W 01:56:27 37° N 01:59:24 10° ENE
GEOS 3 Rocket 4.1 01:51:36 10° SSE 01:56:28 40° WSW 02:01:26 10° NW
STARLINK-1282 4.3 01:54:24 10° W 01:57:21 37° N 02:00:18 10° ENE
STARLINK-1371 3.7 01:53:29 10° WNW 01:57:26 76° NNE 02:01:24 10° ESE
STARLINK-74 4.2 01:54:35 12° SSW 01:57:34 35° SE 02:00:55 10° ENE
STARLINK-48 4.0 01:54:34 10° W 01:58:26 59° NNW 02:02:16 10° ENE
STARLINK-1313 4.4 01:55:34 10° WNW 01:58:29 36° N 02:01:26 10° ENE
STARLINK-39 4.2 01:56:10 12° SSW 01:59:12 36° SE 02:02:33 10° ENE
STARLINK-1279 4.4 01:56:30 10° WNW 01:59:26 36° N 02:02:22 10° ENE
Cosmos 1825 2.2 01:55:54 10° S 01:59:39 82° E 02:03:26 10° NNE
STARLINK-1278 3.8 01:55:36 10° WSW 01:59:51 80° NNW 02:04:08 10° ENE
STARLINK-1298 4.3 01:57:06 10° WNW 02:00:02 36° N 02:02:58 10° ENE
SL-16 R/B 3.6 01:55:28 11° SW 02:00:14 25° W 02:05:15 10° NW
Cosmos 2237 4.3 01:54:32 10° SSW 02:00:16 82° ESE 02:06:02 10° NNE
STARLINK-31 4.1 01:57:45 12° SSW 02:00:51 37° SE 02:04:14 10° ENE
Cosmos 1339 Rocket 4.5 01:54:46 10° N 02:00:55 88° W 02:07:06 10° S
STARLINK-1293 4.3 01:58:01 10° WNW 02:00:58 36° N 02:03:55 10° ENE
STARLINK-80 4.5 01:57:24 10° W 02:01:04 44° N 02:04:45 10° ENE
STARLINK-1280 3.8 01:57:26 10° WSW 02:01:43 79° NNW 02:05:59 10° ENE
SL-08 R/B 3.3 01:57:10 10° S 02:01:45 64° WSW 02:06:21 10° NNW
STARLINK-1341 3.6 01:57:52 10° WNW 02:01:51 80° NNE 02:05:49 10° ESE
STARLINK 1040 4.4 02:00:03 10° WNW 02:02:22 29° N 02:04:41 10° ENE
STARLINK-69 4.0 01:59:20 12° SSW 02:02:29 41° SE 02:05:53 10° ENE
STARLINK-1255 4.3 01:59:51 10° WNW 02:02:47 36° N 02:05:44 10° ENE
STARLINK-22 4.4 02:00:40 10° WNW 02:03:42 36° N 02:06:42 10° ENE
IRS-P3 4.2 01:58:40 10° NNE 02:04:00 74° WNW 02:09:18 10° SSW
STARLINK-21 4.0 02:00:55 11° SSW 02:04:07 40° SE 02:07:32 10° ENE
STARLINK-1311 4.4 02:02:06 10° WNW 02:04:50 33° N 02:07:35 10° ENE
Cosmos 1844 Rocket 2.6 02:00:07 10° NNW 02:05:44 79° WSW 02:11:18 10° SSE
STARLINK-1297 4.4 02:02:16 10° W 02:05:45 42° N 02:09:13 10° ENE
STARLINK-45 3.9 02:02:35 11° SW 02:05:52 45° SE 02:09:21 10° ENE
STARLINK-1374 3.6 02:02:19 10° WNW 02:06:21 84° NNE 02:10:21 10° ESE
NOSS 2-1 (E) 4.1 02:05:16 10° WSW 02:08:29 38° NW 02:12:09 10° NNE
STARLINK-76 3.9 02:05:36 10° SW 02:08:59 44° SE 02:12:27 10° ENE
STARLINK-70 3.9 02:05:59 10° SW 02:09:27 46° SE 02:12:58 10° ENE
SL-16 R/B 2.9 02:04:47 10° SW 02:10:12 45° NW 02:15:40 10° NNE
STARLINK-1286 3.8 02:06:10 10° WSW 02:10:20 76° NNW 02:14:33 10° ENE
STARLINK-1339 3.5 02:06:29 10° WNW 02:10:29 87° NNE 02:14:26 10° ESE
STARLINK-23 3.9 02:07:11 10° SW 02:10:36 45° SE 02:14:06 10° ENE
CZ-2D R/B 3.4 02:07:03 10° N 02:11:20 26° WNW 02:15:35 10° WSW
STARLINK-32 3.8 02:08:37 10° SW 02:12:04 45° SE 02:15:30 10° ENE
Cosmos 2221 4.2 02:09:58 10° NW 02:12:52 18° W 02:15:47 10° SW
STARLINK-1281 3.8 02:09:26 10° WSW 02:13:35 76° NNW 02:17:45 10° ENE
STARLINK-40 3.8 02:10:22 10° SW 02:13:51 47° SE 02:17:21 10° ENE
COSMOS 2428 4.0 02:09:33 10° S 02:14:41 36° ESE 02:19:49 10° NE
STARLINK-1377 3.5 02:11:02 10° WNW 02:15:03 88° SSW 02:19:04 10° ESE
CZ-4C R/B 3.3 02:11:37 10° SSE 02:15:14 75° ENE 02:18:52 10° N
STARLINK-44 3.8 02:11:55 10° SW 02:15:25 49° SE 02:18:57 10° ENE
STARLINK-1029 4.1 02:12:57 10° W 02:15:59 40° NNW 02:19:00 10° ENE
STARLINK-1051 4.4 02:12:06 10° SSW 02:15:59 41° SE 02:19:54 10° ENE
STARLINK-34 4.3 02:13:59 10° WNW 02:16:52 36° N 02:19:46 10° ENE
Cosmos 773 Rocket 4.1 02:11:39 10° SSW 02:16:55 85° WNW 02:22:15 10° NNE
STARLINK-37 3.6 02:13:42 10° SW 02:17:14 53° SSE 02:20:48 10° ENE
FALCON 9 DEB 3.6 02:15:19 10° WNW 02:18:34 39° SW 02:21:50 10° SSE
STARLINK-1310 3.8 02:14:26 10° WSW 02:18:35 72° NNW 02:22:44 10° ENE
STARLINK-36 3.7 02:15:09 10° SW 02:18:40 51° SSE 02:22:12 10° ENE
STARLINK-1353 3.5 02:15:22 10° WNW 02:19:23 84° SSW 02:23:24 10° ESE
STARLINK-62 4.3 02:17:51 10° WNW 02:20:43 35° N 02:23:33 10° ENE
STARLINK-63 3.6 02:18:29 10° SW 02:22:01 57° SSE 02:25:35 10° ENE
STARLINK-35 3.6 02:19:53 10° SW 02:23:22 55° SSE 02:26:53 10° ENE
STARLINK-1319 3.9 02:19:25 10° WSW 02:23:33 69° NNW 02:27:42 10° ENE
STARLINK-1375 3.5 02:19:44 10° WNW 02:23:46 80° SSW 02:27:47 10° ESE
STARLINK-51 3.5 02:21:38 10° SW 02:25:10 57° SSE 02:28:45 10° ENE
Cosmos 2366 rocket 4.1 02:19:35 10° SSW 02:25:51 79° W 02:32:13 10° N
STARLINK-1028 4.2 02:21:55 10° SW 02:25:54 47° SE 02:29:55 10° ENE
Cosmos 2278 Rocket 3.8 02:22:15 10° NNW 02:27:38 41° NE 02:32:58 10° ESE
